Theta_e
324 324 324 324 324 325 325 324 324 324 324 324 324 324 324 325 325 325 324 324 324 324 324 324 324 324 323 323 323 323 322 323 322 322 322 321 321 320 319 319 320 319
323 323 323 324 324 324 324 325 324 324 324 324 324 325 326 325 326 325 324 324 324 324 324 324 324 324 323 322 322 322 321 321 321 322 322 321 320 321 320 320 320 320
324 323 323 323 323 323 323 324 325 324 324 324 325 325 325 326 326 325 325 324 324 324 324 324 324 323 323 322 322 321 321 321 320 321 321 320 321 320 320 320 320 320
323 323 323 323 323 323 324 323 324 324 324 324 324 325 325 326 325 324 325 320 324 323 324 324 323 323 322 322 322 321 321 320 321 321 320 320 320 320 320 320 320 320
323 323 323 323 323 324 324 324 323 324 324 324 325 325 324 325 324 324 324 323 323 323 324 323 323 323 322 322 322 321 321 320 321 321 320 319 320 320 320 320 320 319
324 324 324 323 323 323 323 323 323 323 323 324 324 325 324 324 323 323 323 323 322 323 323 323 323 322 322 322 321 321 320 320 320 320 320 319 320 321 320 320 320 319
323 323 323 323 323 323 323 323 324 323 324 324 325 324 324 323 323 323 323 323 323 322 323 323 322 322 322 321 320 320 320 320 321 320 320 320 320 320 321 320 320 319
323 324 323 323 323 323 322 323 323 324 324 324 324 324 324 323 322 323 323 323 322 322 322 323 322 322 322 321 320 320 320 320 320 320 319 319 320 319 320 321 321 320
324 323 323 323 322 322 322 323 323 324 324 324 323 323 323 323 322 323 323 323 322 322 322 322 322 322 322 321 320 319 319 319 320 320 319 319 319 319 319 320 320 318
323 323 323 323 322 322 322 323 323 324 324 323 323 323 322 322 323 322 322 322 322 322 322 322 322 321 321 321 320 320 319 319 319 320 320 320 319 319 319 319 318 317
323 323 323 323 322 322 322 323 323 323 323 322 322 322 322 321 321 321 322 321 321 321 321 321 321 320 320 320 320 320 320 319 319 320 320 320 319 318 311 318 317 317
322 323 322 322 322 322 322 323 323 323 322 322 322 322 321 321 320 320 320 320 321 321 321 321 320 320 320 319 319 319 319 320 320 319 319 319 319 319 319 318 317 317
321 322 322 322 322 322 322 322 322 322 322 321 321 321 321 320 319 320 320 320 320 321 320 320 319 319 319 319 319 319 318 318 318 318 318 317 318 318 318 318 318 318
320 321 322 322 322 322 322 322 322 321 321 321 319 320 320 319 318 318 319 319 320 320 320 319 319 318 317 318 318 318 317 317 317 316 317 318 317 317 317 317 317 318
319 320 321 321 320 321 321 321 321 321 321 320 319 318 319 319 319 318 317 316 317 318 318 318 317 316 316 317 317 317 318 318 318 316 315 315 315 315 315 315 315 315
317 318 318 319 319 319 319 319 319 319 318 317 316 316 317 318 319 317 316 315 314 314 314 315 315 316 307 305 307 316 317 317 317 316 315 314 312 311 311 312 313 312
315 316 316 315 316 317 317 316 316 315 314 314 314 314 315 315 315 315 314 314 313 313 312 313 313 313 303 304 304 305 313 316 315 314 314 314 313 312 311 308 309 309
312 312 312 312 313 313 314 314 313 312 311 311 311 309 310 310 311 312 312 312 312 312 311 311 312 303 303 302 302 303 303 314 315 314 312 312 311 312 312 309 307 306
308 308 308 308 309 310 311 310 309 308 308 308 309 308 306 306 308 310 310 310 310 309 309 309 309 303 301 301 301 301 301 305 314 313 312 311 310 310 310 308 304 303
305 305 305 305 305 305 304 304 304 306 306 306 304 301 303 304 304 304 306 306 307 309 308 308 307 301 300 300 300 299 300 302 311 311 311 311 310 309 308 307 304 303
303 303 303 303 301 300 299 300 302 302 301 300 300 300 301 302 301 301 303 302 303 305 307 306 306 300 299 298 299 299 299 299 309 309 310 310 310 308 308 307 305 304
301 302 302 301 298 297 298 298 299 300 300 298 297 298 298 299 299 299 300 300 300 301 302 304 304 298 297 297 298 298 298 301 307 306 307 307 306 303 302 303 303 303
299 300 299 299 297 296 297 298 298 298 297 296 297 297 298 298 299 298 299 300 298 299 301 302 301 296 296 296 297 298 298 303 304 304 303 302 301 299 299 299 299 300
298 298 298 297 297 296 296 297 297 297 296 294 296 296 296 297 298 297 297 298 298 298 299 300 300 295 294 295 296 296 298 303 303 302 300 298 297 296 296 296 296 291
297 297 297 297 296 296 296 295 295 295 295 293 295 296 296 296 296 297 296 296 297 298 292 298 299 294 292 294 295 296 297 303 300 300 297 296 296 294 292 294 293 289
297 296 295 295 295 293 294 295 295 295 294 293 294 296 296 295 295 296 295 295 295 295 295 297 298 296 291 293 294 295 297 299 298 299 297 296 296 295 292 290 291 291
Wind_Speed
17 15 16 16 16 14 14 14 13 13 13 12 12 12 13 13 12 14 17 16 16 16 16 16 15 15 14 15 14 14 13 14 13 13 14 15 15 16 14 14 13 12
19 18 14 13 12 12 14 14 14 14 14 13 12 11 10 11 13 13 14 15 16 16 16 16 15 15 15 14 15 15 14 13 15 10 13 15 15 14 15 14 15 13
18 17 17 18 17 18 17 14 13 13 13 13 12 11 10 11 11 13 12 13 14 16 16 16 16 15 15 15 15 14 14 15 15 13 13 16 14 13 14 13 13 15
20 19 18 18 17 16 14 13 13 12 12 12 13 12 10 8 11 12 13 14 13 15 15 16 16 15 15 16 15 14 15 15 14 14 14 13 13 13 13 12 12 11
19 18 16 16 16 16 13 14 15 14 14 15 12 12 11 10 11 12 12 12 13 15 15 16 16 15 15 15 16 14 14 13 14 14 13 13 13 12 11 11 12 13
15 15 16 16 16 15 14 14 15 15 15 14 14 11 11 12 12 13 13 14 14 16 15 15 15 16 15 15 15 15 14 13 13 14 14 13 12 10 10 11 12 12
16 16 17 16 16 15 15 15 14 13 14 13 11 11 12 12 13 14 14 14 14 15 17 16 16 16 15 14 15 15 14 13 13 15 15 13 11 12 12 12 11 12
18 16 15 15 16 16 16 16 15 14 13 12 13 12 12 13 14 13 13 15 14 16 17 17 16 16 16 15 15 15 15 12 13 14 14 14 11 12 13 11 12 12
15 15 14 16 17 16 17 16 15 14 12 12 12 11 11 13 14 14 14 15 15 18 18 15 17 16 16 16 16 16 16 14 12 13 13 14 13 13 11 11 12 12
15 14 15 15 16 15 16 16 14 13 11 12 12 11 11 12 13 14 15 15 15 16 15 16 17 16 16 16 17 16 15 15 13 13 13 12 13 12 12 11 12 11
15 15 15 15 15 13 16 14 14 11 10 12 12 12 12 12 12 15 18 16 15 15 15 17 17 17 16 15 16 15 14 14 13 13 13 12 12 11 11 12 11 12
15 14 15 15 15 14 15 14 13 13 12 11 13 15 14 16 17 16 16 19 18 14 17 18 17 16 16 14 13 12 12 13 12 12 12 12 12 11 11 11 11 11
13 14 14 14 14 14 12 12 12 13 13 13 13 15 16 17 16 17 15 16 17 17 18 17 16 14 13 12 12 12 12 12 11 11 11 11 11 12 11 11 11 11
13 13 13 13 11 11 12 12 12 14 17 15 11 14 17 17 16 16 15 14 16 16 16 13 14 12 12 12 12 12 12 12 11 11 11 11 11 10 9 10 11 11
10 8 7 8 9 10 11 14 17 15 12 12 10 12 14 16 15 15 13 12 12 12 13 12 12 13 12 13 13 13 12 12 12 12 11 11 10 10 10 10 10 10
9 7 9 10 13 14 16 16 15 14 12 13 13 13 14 13 15 14 13 14 13 12 12 12 12 12 14 19 16 12 12 11 11 11 11 10 9 9 9 10 10 9
8 8 7 11 15 13 12 12 12 11 11 12 12 12 13 13 12 13 13 13 14 14 14 13 12 12 18 18 19 19 13 11 11 10 9 10 11 11 10 9 8 8
7 6 10 12 11 13 12 12 11 10 11 12 12 12 12 11 12 12 13 12 12 12 13 13 13 15 17 18 19 19 17 12 10 10 10 10 10 10 10 8 8 8
6 9 11 10 12 10 9 8 9 10 11 12 14 13 10 12 13 13 13 11 12 13 13 13 12 16 18 18 19 19 19 15 9 10 10 10 10 9 9 8 7 8
7 9 11 11 9 8 7 7 9 12 11 9 7 6 10 11 10 12 11 11 12 13 12 12 12 14 18 18 18 18 18 16 10 10 10 10 10 9 8 8 9 9
9 9 12 10 8 7 7 9 10 9 8 8 7 9 10 11 10 10 11 10 11 10 10 11 11 15 17 18 17 17 17 15 9 8 8 9 9 9 10 10 9 9
8 8 8 8 6 7 8 10 10 10 11 8 7 7 7 6 7 8 10 10 9 9 10 12 10 14 15 16 17 16 17 11 9 9 9 8 8 8 8 8 8 9
7 7 7 8 7 8 10 11 11 11 8 4 7 8 9 9 10 10 9 10 11 11 12 11 8 11 15 16 16 17 13 10 10 8 8 9 8 7 8 8 8 8
6 7 8 9 9 12 12 10 8 6 7 6 8 8 9 9 7 7 7 9 10 11 12 11 8 10 15 15 16 17 15 11 9 9 8 8 7 7 7 7 8 11
7 7 7 8 10 11 10 10 10 10 6 6 7 7 8 5 6 7 8 8 9 11 11 12 9 9 14 15 16 17 15 10 10 9 9 8 8 7 5 5 6 7
6 8 9 9 9 6 6 9 6 7 8 9 8 7 7 7 7 8 9 9 7 8 9 10 8 7 9 15 16 18 19 11 9 9 10 10 8 8 6 5 5 6
Wind_Direction
214 213 213 212 214 214 210 208 207 204 205 207 207 207 202 202 192 193 202 210 212 213 212 213 213 213 215 216 215 218 222 222 222 221 221 223 225 224 224 223 222 224
215 214 215 215 216 215 215 209 206 203 206 208 212 210 202 192 187 186 193 204 212 214 213 213 214 213 212 213 213 215 219 220 222 216 220 221 225 224 225 223 225 226
214 212 212 210 213 213 210 209 206 205 207 209 208 208 204 189 184 188 193 197 208 215 215 214 214 214 212 212 212 214 217 218 220 216 218 224 222 222 226 224 227 229
214 214 213 214 217 219 215 211 208 209 208 208 206 203 196 176 185 189 195 194 206 216 215 214 214 213 212 212 212 215 217 218 218 215 218 222 223 223 223 222 224 224
212 214 215 216 216 218 215 209 208 208 209 211 208 197 192 181 190 195 195 194 205 219 217 215 214 212 211 211 211 215 216 216 214 214 216 219 219 218 219 216 220 223
214 213 215 216 217 214 214 214 212 210 210 209 208 195 192 189 192 197 195 197 205 216 216 215 213 212 210 211 211 215 214 213 213 211 215 218 217 212 214 216 220 222
213 211 213 214 216 216 217 219 218 213 213 211 202 197 186 188 193 196 196 198 200 213 217 214 212 211 210 210 211 214 215 214 212 212 215 219 214 214 215 214 215 220
214 214 212 211 213 215 216 218 218 213 210 207 202 197 187 190 195 195 198 196 200 211 217 216 214 213 209 208 210 213 214 213 213 212 214 217 211 213 211 211 218 219
213 213 210 209 212 213 216 215 217 214 204 198 201 202 193 196 196 196 193 195 202 214 214 213 217 214 210 209 211 212 212 213 211 211 212 211 210 211 208 210 216 218
214 213 210 208 209 211 214 212 211 210 198 200 203 201 194 197 198 199 200 194 199 208 207 213 217 214 211 210 212 211 211 213 209 210 213 209 210 210 209 208 213 216
215 212 212 208 210 210 213 209 208 202 195 197 200 203 198 199 202 210 211 200 201 203 205 214 215 212 210 211 213 213 213 213 211 210 211 210 209 211 209 207 209 216
215 213 215 214 213 215 214 210 209 205 203 197 201 206 204 213 209 205 207 209 209 204 213 214 212 209 210 211 210 210 212 213 211 209 211 211 210 210 210 208 210 212
217 216 214 214 212 214 212 207 207 205 202 200 200 206 208 211 208 207 203 204 209 210 212 211 208 204 207 208 209 208 211 211 211 210 211 212 213 210 206 207 210 211
223 219 215 211 208 206 206 205 209 212 215 211 195 202 210 209 205 205 204 202 205 207 209 204 203 200 204 209 209 210 209 212 210 210 211 211 211 210 209 209 211 211
228 226 225 223 211 211 212 215 216 211 205 205 198 204 208 209 207 204 199 198 204 204 205 200 201 202 204 205 207 208 208 207 209 210 209 209 208 211 211 210 211 210
231 224 224 228 225 221 220 216 213 210 207 207 206 204 208 207 207 203 199 199 201 205 203 201 204 207 204 203 203 205 204 207 208 209 207 205 203 206 210 208 206 204
226 226 216 226 226 221 215 211 210 206 206 208 208 206 207 206 205 203 201 201 202 201 202 203 206 207 203 200 202 202 201 204 205 205 206 207 206 205 208 204 203 204
221 219 225 229 227 226 220 217 211 205 206 206 206 206 208 203 205 205 204 203 203 204 204 205 209 206 199 199 200 203 203 203 202 204 202 206 207 204 202 196 200 201
212 223 228 228 227 230 229 227 217 212 210 206 209 206 197 199 205 204 206 202 201 202 207 207 211 204 200 199 202 203 203 202 202 200 198 202 200 201 197 194 193 197
210 222 229 225 221 222 224 224 220 221 218 218 214 197 203 207 206 206 204 202 203 204 207 210 212 204 200 201 202 200 199 198 205 198 201 199 196 193 194 192 191 194
218 218 231 226 217 211 211 220 220 226 220 212 201 201 201 205 205 206 207 205 206 208 209 213 217 203 200 200 200 197 195 194 204 199 200 201 196 192 193 195 195 197
215 220 232 228 218 212 214 221 221 220 218 206 202 206 208 203 210 207 208 208 208 207 211 219 218 200 198 199 197 196 190 193 200 197 199 198 195 193 196 196 194 193
214 215 220 224 205 208 219 221 220 221 221 195 208 212 207 209 209 206 207 204 203 206 210 220 216 197 196 197 196 192 186 196 194 193 194 193 197 192 192 193 195 194
206 208 212 210 207 216 220 220 219 218 212 189 206 206 217 220 215 212 210 208 204 209 209 212 212 191 194 197 193 189 186 190 187 184 187 188 191 191 189 192 197 194
210 211 214 210 218 221 218 219 210 208 196 180 206 208 216 200 206 211 215 215 211 210 201 205 204 191 191 193 192 187 186 184 178 178 181 193 186 189 182 187 196 203
200 204 212 215 222 222 221 226 219 206 197 192 201 203 202 202 203 208 211 216 210 208 205 205 197 190 190 194 192 189 185 177 176 176 193 191 186 182 173 196 196 194